Regional Weather Roundup
Issued by NWS

Current Version | Previous Version | Text Only | Print | Product List | Glossary Off
Versions: 1 2 3 4 5 6 7 8 9 10 11 12 13 14 15 16 17 18 19 20 21 22 23 24 25 26 27 28 29 30 31 32 33 34 35 36 37 38 39 40 41 42 43 44 45 46 47 48 49 50

000
ASUS44 KJAN 231410
RWRMS

MISSISSIPPI HOURLY WEATHER ROUNDUP
NATIONAL WEATHER SERVICE JACKSON MS
900 AM CDT SAT MAY 23 2015

NOTE: "FAIR: INDICATES FEW OR NO CLOUDS BELOW 12,000 FEET WITH NO
SIGNIFICANT WEATHER AND/OR OBSTRUCTIONS TO VISIBILITY.

MSZ001>002-007>008-010>013-018>021-025>028-034>036-231500-
NORTHWEST MISSISSIPPI

CITY           SKY/WX    TMP DP  RH WIND       PRES   REMARKS
CLARKSDALE     FAIR      68  57  68 CALM      30.29S
CLEVELAND      FAIR      71  58  64 SE6       30.27S
GREENWOOD      SUNNY     70  55  59 E5        30.27R
GREENVILLE     SUNNY     70  58  65 SE8       30.26R
OLIVE BRANCH   PTSUNNY   64  57  77 SE5       30.30S
OXFORD         FAIR      68  54  60 SE7       30.31S
TUNICA         PTSUNNY   64  54  68 SE3       30.30R
$$

MSZ003>006-009-014>017-022>024-029>033-037>039-231500-
NORTHEAST MISSISSIPPI

CITY           SKY/WX    TMP DP  RH WIND       PRES   REMARKS
COLUMBUS AFB   NOT AVBL
CORINTH        FAIR      68  54  60 SE5       30.32S
GOLDN TRIANGLE SUNNY     66  54  63 SE7       30.29R
STARKVILLE     FAIR      68  55  64 SE5       30.29S
TUPELO         SUNNY     70  50  49 SE9       30.31R
$$

MSZ040-058-231500-
CENTRAL MISSISSIPPI

CITY           SKY/WX    TMP DP  RH WIND       PRES   REMARKS
JACKSON INTL   PTSUNNY   73  56  54 SE5       30.26S
JACKSON HAWKNS CLOUDY    72  57  59 SE6       30.27R
MERIDIAN KEY   SUNNY     73  58  59 NE3       30.27F
MERIDIAN NAS   SUNNY     69  57  65 E6        30.29S
RAYMOND        CLOUDY    72  66  83 E6        30.26R
VICKSBURG      CLOUDY    71  58  63 E5        30.26R
$$

MSZ059>079-231500-
SOUTH MISSISSIPPI

CITY           SKY/WX    TMP DP  RH WIND       PRES   REMARKS
BROOKHAVEN     FAIR      73  63  68 E6        30.27S
HATTIESBURG    SUNNY     73  58  59 E5        30.27R
MCCOMB         SUNNY     73  61  65 SE8       30.25R
NATCHEZ        SUNNY     73  61  64 SE6       30.24S
PINE BELT      SUNNY     72 N/A N/A SE6       30.27S
$$

MSZ080>082-231500-
COASTAL MISSISSIPPI

CITY           SKY/WX    TMP DP  RH WIND       PRES   REMARKS
BAY ST LOUIS   SUNNY     77  59  53 MISG      30.23S
BILOXI         SUNNY     77  63  60 E7        30.23S
PASCAGOULA     SUNNY     77  62  59 E5        30.24R
GULFPORT       SUNNY     78  62  57 NE5       30.23R
$$


USA.gov is the U.S. government's official web portal to all federal, state and local government web resources and services.